This demonstration page uses our WeatherBlox Daily Observations layout. Learn more.

Left ArrowRight Arrow

41.55636, -103.73856

Hourly Observations for June 2, 2015

Temp ( °F °C ) Dew Point ( °F °C ) Humidity (%) Winds ( mph kmh ) Pressure ( in mb ) Visibility ( mi km ) Precip ( " mm )
12:53 am 00:53 Clear 58 14.4 55 12.8 90 90 SSE 10 17 29.82 1010 10 16.0934 0 0
1:53 am 01:53 Clear 57 13.9 54 12.2 90 90 SE 6 9 29.8 1009 10 16.0934 0 0
2:53 am 02:53 Clear 60 15.6 53 11.7 78 78 S 14 22 29.81 1010 10 16.0934 0 0
3:53 am 03:53 Mostly Clear 62 16.7 53 11.7 73 73 ESE 10 17 29.73 1007 10 16.0934 0 0.0254
4:53 am 04:53 Clear 57 13.9 53 11.7 87 87 N 10 17 29.8 1009 10 16.0934 0 0
5:11 am 05:11 Clear with Nearby Thunderstorms 59 15 54 12.2 83 83 WNW 6 9 29.83 1010 10 16.0934 0 0
5:39 am 05:39 Mostly Sunny 65 18.3 57 13.9 76 76 SSW 7 11 29.77 1008 10 16.0934 0 0
5:53 am 05:53 Mostly Sunny 63 17.2 54 12.2 73 73 N 7 11 29.84 1010 10 16.0934 0 0
6:53 am 06:53 Mostly Cloudy 62 16.7 58 14.4 86 86 WSW 7 11 29.82 1010 10 16.0934 0.02 0.508
7:49 am 07:49 Partly Cloudy 66 19 57 14 73 73 SW 10 17 29.77 1008 10 16.0934 0 0
7:53 am 07:53 Mostly Sunny 66 18.9 58 14.4 75 75 WSW 10 17 29.81 1009 10 16.0934 0 0
8:53 am 08:53 Sunny 69 20.6 58 14.4 68 68 W 6 9 29.81 1009 10 16.0934 0 0
9:53 am 09:53 Sunny 72 22.2 59 15 64 64 VRB 5 7 29.78 1009 10 16.0934 0 0
10:53 am 10:53 Sunny 74 23.3 59 15 60 60 SSW 6 9 29.76 1008 10 16.0934 0 0
11:53 am 11:53 Sunny 77 25 61 16.1 58 58 SE 6 9 29.75 1007 10 16.0934 0 0
12:53 pm 12:53 Sunny 81 27.2 60 15.6 49 49 VRB 5 7 29.72 1007 10 16.0934 0 0
1:53 pm 13:53 Sunny 83 28.3 60 15.6 46 46 SE 6 9 29.71 1006 10 16.0934 0 0
2:53 pm 14:53 Sunny 86 30 53 11.7 32 32 undefined N/A 29.69 1005 10 16.0934 0 0
3:53 pm 15:53 Sunny 87 30.6 51 10.6 29 29 VRB 3 6 29.65 1004 10 16.0934 0 0
4:53 pm 16:53 Sunny 86 30 57 13.9 37 37 SSE 7 11 29.66 1005 10 16.0934 0 0
5:53 pm 17:53 Hazy 78 25.6 56 13.3 47 47 NNE 29 46 29.67 1005 6 9.65604 0 0
6:00 pm 18:00 Hazy 75 24 52 11 44 44 NNE 29 46 29.56 1001 3 4.82802 0 0
6:13 pm 18:13 Partly Cloudy with Nearby Thunderstorms 76 24.4 51 10.6 42 42 NNE 24 39 29.56 1001 10 16.0934 0 0
6:25 pm 18:25 Partly Cloudy with Thunderstorms 76 24.4 51 10.6 42 42 NNE 25 41 29.59 1002 10 16.0934 0 0
6:40 pm 18:40 Sunny with Nearby Thunderstorms 73 23 48 9 41 41 NE 23 37 29.59 1002 8 12.87472 0 0
6:49 pm 18:49 Sunny 73 23 48 9 41 41 NE 26 43 29.59 1002 9 14.48406 0 0
6:53 pm 18:53 Sunny 73 22.8 49 9.4 43 43 NE 21 33 29.7 1006 9 14.48406 0 0
7:53 pm 19:53 Sunny 69 20.6 49 9.4 49 49 NE 14 22 29.7 1006 10 16.0934 0 0
8:53 pm 20:53 Clear 66 18.9 49 9.4 54 54 ESE 5 7 29.71 1006 10 16.0934 0 0
9:53 pm 21:53 Clear 62 16.7 51 10.6 67 67 E 5 7 29.74 1007 10 16.0934 0 0
10:53 pm 22:53 Clear 62 16.7 51 10.6 67 67 E 3 6 29.77 1008 10 16.0934 0 0
11:53 pm 23:53 Clear 61 16.1 51 10.6 70 70 VRB 3 6 29.77 1008 10 16.0934 0 0

Powered by AerisWeather